Weather History for PABA - April, 2013

Change the Weather History Date:

Saturday, April 6, 2013

  Actual Average Record
Temperature  
Mean Temperature -17 °F -  
Max Temperature -23 °F 6 °F 28 °F (1997)
Min Temperature -29 °F -6 °F -29 °F (2013)
Degree Days  
Heating Degree Days 82    
Moisture  
Dew Point -25 °F    
Average Humidity 69    
Maximum Humidity 78    
Minimum Humidity 51    
Precipitation  
Precipitation 0.00 in - - ()
Sea Level Pressure  
Sea Level Pressure 30.31 in    
Wind  
Wind Speed 3 mph (WSW)    
Max Wind Speed 12 mph    
Max Gust Speed -    
Visibility 6 miles    
Events Snow    
Averages and records for this station are not official NWS values.
T = Trace of Precipitation, MM = Missing Value Source: NWS Daily Summary

Daily Weather History Graph

Daily Weather History Graph

Search for Another Location

Airport or City:

Trip Planner

Search our weather history database for the weather conditions in past years. The results will help you decide how hot, cold, wet, or windy it might be!

Date:

Astronomy

Apr. 06, 2013 Rise Set
Actual Time 6:10 AM AKDT 9:05 PM AKDT
Civil Twilight 4:59 AM AKDT 10:17 PM AKDT
Nautical Twilight 2:58 AM AKDT 12:26 AM AKDT
Astronomical Twilight Sun does not rise Sun does not rise
Moon 5:52 AM AKDT (4/6) 4:03 PM AKDT (4/6)
Length of Visible Light 17h 17m
Length of Day
14h 54m
Waning Crescent, 14% of the Moon is Illuminated
Apr 6
Waning Crescent
Apr 10
New
Apr 18
First Quarter
Apr 25
Full
May 2
Last Quarter

Hourly Weather History & Observations

Time (AKDT) Temp. Windchill Dew Point Humidity Pressure Visibility Wind Dir Wind Speed Gust Speed Precip Events Conditions
12:01 AM -22.0 °F - -27.0 °F 77% 30.46 in 10.0 mi Calm Calm - N/A   Unknown
1:01 AM -26.0 °F - -32.1 °F 73% 30.45 in 10.0 mi Calm Calm - N/A   Unknown
2:01 AM -29.0 °F - -35.0 °F 73% 30.44 in 10.0 mi Calm Calm - N/A   Unknown
3:01 AM -29.0 °F -46.0 °F -35.0 °F 73% 30.43 in 10.0 mi SW 5.8 mph - N/A   Unknown
4:01 AM -29.9 °F -49.0 °F - N/A% 30.43 in 10.0 mi WSW 6.9 mph - N/A   Unknown
5:01 AM -29.9 °F -47.1 °F - N/A% 30.41 in 10.0 mi West 5.8 mph - N/A   Unknown
6:01 AM -29.0 °F -47.9 °F -35.0 °F 73% 30.40 in 7.0 mi WSW 6.9 mph - 0.00 in Snow Light Snow
7:01 AM -29.0 °F -47.9 °F -35.0 °F 73% 30.38 in 10.0 mi West 6.9 mph - 0.00 in   Unknown
8:01 AM -27.9 °F -44.7 °F -34.1 °F 73% 30.37 in 10.0 mi WSW 5.8 mph - N/A   Unknown
9:01 AM -26.0 °F -42.4 °F -32.1 °F 73% 30.36 in 10.0 mi WSW 5.8 mph - N/A   Unknown
10:01 AM -23.1 °F -36.8 °F -29.0 °F 74% 30.35 in 10.0 mi SW 4.6 mph - N/A   Unknown
11:01 AM -22.0 °F -37.7 °F -27.9 °F 74% 30.34 in 10.0 mi West 5.8 mph - N/A   Unknown
12:01 PM -20.0 °F -35.3 °F -26.0 °F 74% 30.34 in 9.0 mi West 5.8 mph - N/A   Unknown
1:01 PM -13.0 °F - -20.0 °F 71% 30.32 in 10.0 mi Calm Calm - N/A   Unknown
2:01 PM -8.0 °F - -17.0 °F 65% 30.31 in 10.0 mi Calm Calm - N/A   Unknown
3:01 PM -11.0 °F -20.4 °F -18.9 °F 68% 30.30 in 5.0 mi WNW 3.5 mph - N/A   Haze
3:41 PM -9.4 °F - -18.4 °F 65% 30.29 in 2.0 mi Calm Calm - N/A   Haze
4:01 PM -7.6 °F - -18.4 °F 59% 30.28 in 3.0 mi Calm Calm - N/A   Haze
4:18 PM -5.8 °F - -16.6 °F 60% 30.27 in 1.8 mi Calm Calm - N/A   Haze
4:27 PM -5.8 °F - -18.4 °F 55% 30.27 in 3.0 mi Calm Calm - N/A   Haze
5:01 PM -6.0 °F - -20.0 °F 51% 30.27 in 4.0 mi Calm Calm - N/A   Haze
6:01 PM -11.2 °F - -22.0 °F 59% 30.26 in 2.5 mi Calm Calm - N/A   Haze
6:11 PM -11.2 °F -20.6 °F -20.2 °F 64% 30.25 in 3.0 mi West 3.5 mph - N/A   Haze
6:19 PM -11.2 °F - -20.2 °F 64% 30.25 in 2.5 mi Calm Calm - N/A   Haze
6:29 PM -11.2 °F -20.6 °F -20.2 °F 64% 30.25 in 6.0 mi West 3.5 mph - N/A   Haze
7:01 PM -15.0 °F -27.4 °F -23.1 °F 67% 30.25 in 6.0 mi WSW 4.6 mph - N/A   Haze
7:33 PM -16.6 °F -31.3 °F -23.8 °F 70% 30.24 in 2.0 mi WSW 5.8 mph - 0.00 in Snow Light Snow
7:45 PM -16.6 °F -31.3 °F -23.8 °F 70% 30.24 in 5.0 mi WSW 5.8 mph - 0.00 in Snow Light Snow
7:59 PM -18.4 °F -37.9 °F -23.8 °F 76% 30.24 in 2.5 mi West 9.2 mph - 0.00 in Snow Light Snow
8:01 PM -18.4 °F -37.9 °F -23.8 °F 76% 30.23 in 3.0 mi West 9.2 mph - 0.00 in Snow Light Snow
8:44 PM -20.2 °F -40.1 °F -25.6 °F 76% 30.23 in 1.8 mi West 9.2 mph - N/A Snow Light Snow
8:58 PM -20.2 °F -40.1 °F -25.6 °F 76% 30.22 in 3.0 mi West 9.2 mph - N/A Snow Light Snow
9:01 PM -20.0 °F -39.9 °F -26.0 °F 74% 30.22 in 4.0 mi West 9.2 mph - N/A Snow Light Snow
10:01 PM -22.0 °F -43.6 °F -27.9 °F 74% 30.21 in 8.0 mi West 10.4 mph - 0.00 in Snow Light Snow
11:01 PM -23.1 °F -46.0 °F -27.9 °F 78% 30.19 in 4.0 mi West 11.5 mph - 0.00 in Snow Light Snow